Time,TemperatureF,DewpointF,PressureIn,WindDirection,WindDirectionDegrees,WindSpeedMPH,WindSpeedGustMPH,Humidity,HourlyPrecipIn,Conditions,Clouds,dailyrainin,SolarRadiationWatts/m^2,SoftwareType,DateUTC
2013-07-02 00:02:00,75.0,70.0,-100.00,SE,137,3.0,5.0,85,0.00,,,0.01,0.000000,,2013-07-02 04:02:00,
2013-07-02 00:11:00,75.0,70.0,-100.00,SE,137,3.0,5.0,85,0.00,,,0.01,0.000000,,2013-07-02 04:11:00,
2013-07-02 00:32:00,74.0,71.0,-100.00,SSE,148,5.0,7.0,89,0.00,,,0.01,0.000000,,2013-07-02 04:32:00,
2013-07-02 00:42:00,74.0,71.0,-100.00,SSE,148,5.0,7.0,89,0.00,,,0.01,0.000000,,2013-07-02 04:42:00,
2013-07-02 00:54:00,74.0,71.0,-100.00,SSE,148,5.0,7.0,89,0.00,,,0.01,0.000000,,2013-07-02 04:54:00,
2013-07-02 01:02:00,74.0,71.0,-100.00,SSE,148,5.0,7.0,89,0.00,,,0.01,0.000000,,2013-07-02 05:02:00,
2013-07-02 01:11:00,74.0,71.0,-100.00,SSE,148,5.0,7.0,89,0.00,,,0.01,0.000000,,2013-07-02 05:11:00,
2013-07-02 01:43:00,74.0,71.0,-100.00,SSE,163,3.0,8.0,91,0.00,,,0.01,0.000000,,2013-07-02 05:43:00,
2013-07-02 01:53:00,74.0,71.0,-100.00,SSE,163,3.0,8.0,91,0.00,,,0.01,0.000000,,2013-07-02 05:53:00,
2013-07-02 02:02:00,74.0,71.0,-100.00,SSE,163,3.0,8.0,91,0.00,,,0.01,0.000000,,2013-07-02 06:02:00,
2013-07-02 02:12:00,74.0,71.0,-100.00,SSE,163,3.0,8.0,91,0.00,,,0.01,0.000000,,2013-07-02 06:12:00,
2013-07-02 02:43:00,71.0,70.0,-100.00,West,261,0.0,4.0,96,0.00,,,0.01,0.000000,,2013-07-02 06:43:00,
2013-07-02 02:53:00,71.0,70.0,-100.00,West,261,0.0,4.0,96,0.00,,,0.01,0.000000,,2013-07-02 06:53:00,
2013-07-02 03:01:00,71.0,70.0,-100.00,West,261,0.0,4.0,96,0.00,,,0.01,0.000000,,2013-07-02 07:01:00,
2013-07-02 03:12:00,71.0,70.0,-100.00,West,261,0.0,4.0,96,0.00,,,0.01,0.000000,,2013-07-02 07:12:00,
2013-07-02 03:44:00,73.0,71.0,-100.00,SE,145,4.0,5.0,93,0.00,,,0.01,0.000000,,2013-07-02 07:44:00,
2013-07-02 03:53:00,73.0,71.0,-100.00,SE,145,4.0,5.0,93,0.00,,,0.01,0.000000,,2013-07-02 07:53:00,
2013-07-02 04:02:00,73.0,71.0,-100.00,SE,145,4.0,5.0,93,0.00,,,0.01,0.000000,,2013-07-02 08:02:00,
2013-07-02 04:12:00,73.0,71.0,-100.00,SE,145,4.0,5.0,93,0.00,,,0.01,0.000000,,2013-07-02 08:12:00,
2013-07-02 04:44:00,73.0,71.0,-100.00,SE,146,4.0,7.0,93,0.00,,,0.01,0.000000,,2013-07-02 08:44:00,
2013-07-02 04:53:00,73.0,71.0,-100.00,SE,146,4.0,7.0,93,0.00,,,0.01,0.000000,,2013-07-02 08:53:00,
2013-07-02 05:02:00,73.0,71.0,-100.00,SE,146,4.0,7.0,93,0.00,,,0.01,0.000000,,2013-07-02 09:02:00,
2013-07-02 05:11:00,73.0,71.0,-100.00,SE,146,4.0,7.0,93,0.00,,,0.01,0.000000,,2013-07-02 09:11:00,
2013-07-02 05:43:00,72.0,70.0,-100.00,North,352,2.0,6.0,93,0.00,,,0.01,0.000000,,2013-07-02 09:43:00,
2013-07-02 05:52:00,72.0,70.0,-100.00,North,352,2.0,6.0,93,0.00,,,0.01,0.000000,,2013-07-02 09:52:00,
2013-07-02 06:01:00,72.0,70.0,-100.00,North,352,2.0,6.0,93,0.00,,,0.01,0.000000,,2013-07-02 10:01:00,
2013-07-02 06:11:00,72.0,70.0,-100.00,North,352,2.0,6.0,93,0.00,,,0.01,0.000000,,2013-07-02 10:11:00,
2013-07-02 06:44:00,72.0,71.0,-100.00,SSE,157,1.0,3.0,98,0.01,,,0.02,2.000000,,2013-07-02 10:44:00,
2013-07-02 06:52:00,72.0,71.0,-100.00,SSE,157,1.0,3.0,98,0.01,,,0.02,2.000000,,2013-07-02 10:52:00,
2013-07-02 07:01:00,72.0,71.0,-100.00,SSE,157,1.0,3.0,98,0.01,,,0.02,2.000000,,2013-07-02 11:01:00,
2013-07-02 07:11:00,72.0,71.0,-100.00,SSE,157,1.0,3.0,98,0.01,,,0.02,2.000000,,2013-07-02 11:11:00,
2013-07-02 07:42:00,73.0,72.0,-100.00,South,178,3.0,5.0,97,0.00,,,0.02,29.000000,,2013-07-02 11:42:00,
2013-07-02 07:52:00,73.0,72.0,-100.00,South,178,3.0,5.0,97,0.00,,,0.02,29.000000,,2013-07-02 11:52:00,
2013-07-02 08:01:00,73.0,72.0,-100.00,South,178,3.0,5.0,97,0.00,,,0.02,29.000000,,2013-07-02 12:01:00,
2013-07-02 08:11:00,73.0,72.0,-100.00,South,178,3.0,5.0,97,0.00,,,0.02,29.000000,,2013-07-02 12:11:00,
2013-07-02 08:43:00,75.0,73.0,-100.00,SSE,166,3.0,5.0,93,0.00,,,0.02,84.000000,,2013-07-02 12:43:00,
2013-07-02 08:52:00,75.0,73.0,-100.00,SSE,166,3.0,5.0,93,0.00,,,0.02,84.000000,,2013-07-02 12:52:00,
2013-07-02 09:01:00,75.0,73.0,-100.00,SSE,166,3.0,5.0,93,0.00,,,0.02,84.000000,,2013-07-02 13:01:00,
2013-07-02 09:11:00,75.0,73.0,-100.00,SSE,166,3.0,5.0,93,0.00,,,0.02,84.000000,,2013-07-02 13:11:00,
2013-07-02 09:43:00,78.0,72.0,-100.00,South,175,8.0,12.0,83,0.01,,,0.03,379.000000,,2013-07-02 13:43:00,
2013-07-02 09:52:00,78.0,72.0,-100.00,South,175,8.0,12.0,83,0.01,,,0.03,379.000000,,2013-07-02 13:52:00,
2013-07-02 10:02:00,78.0,72.0,-100.00,South,175,8.0,12.0,83,0.01,,,0.03,379.000000,,2013-07-02 14:02:00,
2013-07-02 10:11:00,78.0,72.0,-100.00,South,175,8.0,12.0,83,0.01,,,0.03,379.000000,,2013-07-02 14:11:00,
2013-07-02 10:43:00,81.0,73.0,-100.00,South,171,6.0,14.0,77,0.00,,,0.03,384.000000,,2013-07-02 14:43:00,
2013-07-02 10:53:00,81.0,73.0,-100.00,South,171,6.0,14.0,77,0.00,,,0.03,384.000000,,2013-07-02 14:53:00,
2013-07-02 11:02:00,81.0,73.0,-100.00,South,171,6.0,14.0,77,0.00,,,0.03,384.000000,,2013-07-02 15:02:00,
2013-07-02 11:12:00,81.0,73.0,-100.00,South,171,6.0,14.0,77,0.00,,,0.03,384.000000,,2013-07-02 15:12:00,
2013-07-02 11:44:00,81.0,71.0,-100.00,SSE,168,7.0,16.0,71,0.00,,,0.03,438.000000,,2013-07-02 15:44:00,
2013-07-02 11:53:00,81.0,71.0,-100.00,SSE,168,7.0,16.0,71,0.00,,,0.03,438.000000,,2013-07-02 15:53:00,
2013-07-02 12:01:00,81.0,71.0,-100.00,SSE,168,7.0,16.0,71,0.00,,,0.03,438.000000,,2013-07-02 16:01:00,
2013-07-02 12:12:00,81.0,71.0,-100.00,SSE,168,7.0,16.0,71,0.00,,,0.03,438.000000,,2013-07-02 16:12:00,
2013-07-02 12:43:00,83.0,71.0,-100.00,SSE,167,10.0,16.0,68,0.00,,,0.02,584.000000,,2013-07-02 16:43:00,
2013-07-02 12:52:00,83.0,71.0,-100.00,SSE,167,10.0,16.0,68,0.00,,,0.02,584.000000,,2013-07-02 16:52:00,
2013-07-02 13:02:00,83.0,71.0,-100.00,SSE,167,10.0,16.0,68,0.00,,,0.02,584.000000,,2013-07-02 17:02:00,
2013-07-02 13:12:00,83.0,71.0,-100.00,SSE,167,10.0,16.0,68,0.00,,,0.02,584.000000,,2013-07-02 17:12:00,
2013-07-02 13:43:00,84.0,70.0,-100.00,SSE,164,7.0,15.0,64,0.00,,,0.02,686.000000,,2013-07-02 17:43:00,
2013-07-02 13:53:00,84.0,70.0,-100.00,SSE,164,7.0,15.0,64,0.00,,,0.02,686.000000,,2013-07-02 17:53:00,
2013-07-02 14:02:00,84.0,70.0,-100.00,SSE,164,7.0,15.0,64,0.00,,,0.02,686.000000,,2013-07-02 18:02:00,
2013-07-02 14:12:00,84.0,70.0,-100.00,SSE,164,7.0,15.0,64,0.00,,,0.02,686.000000,,2013-07-02 18:12:00,
2013-07-02 14:43:00,82.0,69.0,-100.00,South,174,10.0,18.0,66,0.00,,,0.02,411.000000,,2013-07-02 18:43:00,
2013-07-02 14:53:00,82.0,69.0,-100.00,South,174,10.0,18.0,66,0.00,,,0.02,411.000000,,2013-07-02 18:53:00,
2013-07-02 15:01:00,82.0,69.0,-100.00,South,174,10.0,18.0,66,0.00,,,0.02,411.000000,,2013-07-02 19:01:00,
2013-07-02 15:12:00,82.0,69.0,-100.00,South,174,10.0,18.0,66,0.00,,,0.02,411.000000,,2013-07-02 19:12:00,
2013-07-02 15:43:00,83.0,71.0,-100.00,South,169,11.0,19.0,68,0.00,,,0.02,468.000000,,2013-07-02 19:43:00,
2013-07-02 15:53:00,83.0,71.0,-100.00,South,169,11.0,19.0,68,0.00,,,0.02,468.000000,,2013-07-02 19:53:00,
2013-07-02 16:02:00,83.0,71.0,-100.00,South,169,11.0,19.0,68,0.00,,,0.02,468.000000,,2013-07-02 20:02:00,
2013-07-02 16:11:00,83.0,71.0,-100.00,South,169,11.0,19.0,68,0.00,,,0.02,468.000000,,2013-07-02 20:11:00,
2013-07-02 16:43:00,82.0,71.0,-100.00,South,184,13.0,24.0,70,0.00,,,0.02,482.000000,,2013-07-02 20:43:00,
2013-07-02 16:52:00,82.0,71.0,-100.00,South,184,13.0,24.0,70,0.00,,,0.02,482.000000,,2013-07-02 20:52:00,
2013-07-02 17:03:00,82.0,71.0,-100.00,South,184,13.0,24.0,70,0.00,,,0.02,482.000000,,2013-07-02 21:03:00,
2013-07-02 17:11:00,82.0,71.0,-100.00,South,184,13.0,24.0,70,0.00,,,0.02,482.000000,,2013-07-02 21:11:00,
2013-07-02 17:44:00,81.0,70.0,-100.00,South,170,9.0,22.0,70,0.00,,,0.02,450.000000,,2013-07-02 21:44:00,
2013-07-02 17:52:00,81.0,70.0,-100.00,South,170,9.0,22.0,70,0.00,,,0.02,450.000000,,2013-07-02 21:52:00,
2013-07-02 18:01:00,81.0,70.0,-100.00,South,170,9.0,22.0,70,0.00,,,0.02,450.000000,,2013-07-02 22:01:00,
2013-07-02 18:11:00,81.0,70.0,-100.00,South,170,9.0,22.0,70,0.00,,,0.02,450.000000,,2013-07-02 22:11:00,
2013-07-02 18:43:00,78.0,68.0,-100.00,SSE,166,8.0,17.0,72,0.00,,,0.02,180.000000,,2013-07-02 22:43:00,
2013-07-02 18:53:00,78.0,68.0,-100.00,SSE,166,8.0,17.0,72,0.00,,,0.02,180.000000,,2013-07-02 22:53:00,
2013-07-02 19:02:00,78.0,68.0,-100.00,SSE,166,8.0,17.0,72,0.00,,,0.02,180.000000,,2013-07-02 23:02:00,
2013-07-02 19:12:00,78.0,68.0,-100.00,SSE,166,8.0,17.0,72,0.00,,,0.02,180.000000,,2013-07-02 23:12:00,
2013-07-02 19:44:00,77.0,69.0,-100.00,SSE,163,7.0,14.0,76,0.00,,,0.02,80.000000,,2013-07-02 23:44:00,
2013-07-02 19:52:00,77.0,69.0,-100.00,SSE,163,7.0,14.0,76,0.00,,,0.02,80.000000,,2013-07-02 23:52:00,
2013-07-02 20:01:00,77.0,69.0,-100.00,SSE,163,7.0,14.0,76,0.00,,,0.02,80.000000,,2013-07-03 00:01:00,
2013-07-02 20:11:00,77.0,69.0,-100.00,SSE,163,7.0,14.0,76,0.00,,,0.02,80.000000,,2013-07-03 00:11:00,
2013-07-02 20:44:00,76.0,70.0,-100.00,SSE,162,6.0,12.0,81,0.00,,,0.02,48.000000,,2013-07-03 00:44:00,
2013-07-02 20:52:00,76.0,70.0,-100.00,SSE,162,6.0,12.0,81,0.00,,,0.02,48.000000,,2013-07-03 00:52:00,
2013-07-02 21:01:00,76.0,70.0,-100.00,SSE,162,6.0,12.0,81,0.00,,,0.02,48.000000,,2013-07-03 01:01:00,
2013-07-02 21:11:00,76.0,70.0,-100.00,SSE,162,6.0,12.0,81,0.00,,,0.02,48.000000,,2013-07-03 01:11:00,
2013-07-02 21:43:00,74.0,69.0,-100.00,SSE,168,3.0,11.0,85,0.00,,,0.02,6.000000,,2013-07-03 01:43:00,
2013-07-02 22:06:00,74.0,69.0,-100.00,SSE,168,3.0,11.0,85,0.00,,,0.02,6.000000,,2013-07-03 02:06:00,
2013-07-02 22:13:00,73.0,70.0,-100.00,SE,146,4.0,7.0,89,0.00,,,0.02,0.000000,,2013-07-03 02:13:00,
2013-07-02 22:46:00,73.0,70.0,-100.00,SE,146,4.0,7.0,89,0.00,,,0.02,0.000000,,2013-07-03 02:46:00,
2013-07-02 23:07:00,73.0,70.0,-100.00,SE,146,4.0,7.0,89,0.00,,,0.02,0.000000,,2013-07-03 03:07:00,
2013-07-02 23:49:00,73.0,70.0,-100.00,SSE,153,4.0,7.0,90,0.00,,,0.02,0.000000,,2013-07-03 03:49:00,
2013-07-02 23:59:00,73.0,70.0,-100.00,SSE,153,4.0,7.0,90,0.00,,,0.02,0.000000,,2013-07-03 03:59:00,